Tracking 20715 objects as of 27-May-2020
HD Live streaming from Space Station
objects crossing your sky now

FENGYUN 1C DEB

Track FENGYUN 1C DEB now!
10-day predictions


NORAD ID: 32198
Int'l Code: 1999-025CUU
Perigee: 836.4 km
Apogee: 985.4 km
Inclination: 98.4 °
Period: 103.1 minutes
Semi major axis: 7281 km
RCS: 0.0075 m2 (small)
Launch date: May 10, 1999
Source: People's Republic of China (PRC)
Launch site: Taiyaun Space Center, China (TSC)

Note: This is SATELLITE DEBRIS
aabbcc
Your satellite tracking list
Your tracking list is empty




NASA's NSSDC Master Catalog

Two Line Element Set (TLE):
1 32198U 99025CUU 20147.59480262 +.00000534 +00000-0 +39252-3 0  9994
2 32198 098.3658 081.7003 0102360 253.6807 105.3081 13.97126169285767
Source of the keplerian elements: AFSPC